Find Starlink 30382

NORAD ID: 57786 Int'l Des: 2023-134 Owner: SPXS Country: US Constellation: starlink operational
LEOCIRCULAR

現在のビュー

3D地球を読み込み中...

About Starlink 30382

Starlink 30382 (NORAD 57786) is a starlink constellation satellite (v2 mini) launched Sep 4, 2023 by SPXS of US. It operates in LEO, CIRCULAR orbit with a mass of 730.00 kg.

次回通過

Passes for default location (London). Set your location on the main map for personalized predictions.

高度履歴

Loading altitude history...

軌道要素

1 57786U 23134R 26236.55798471 -.00000865 00000-0 -21907-4 0 9995
2 57786 43.0041 326.1525 0001593 274.8557 85.2113 15.27573898165183
Epoch: Aug 24, 2026 • Age: 7 hours

現在のステータス

高度 483.4 km
遠地点 / 近地点 N/A
速度 7.63 km/s
衛星直下点 22.93°N, 159.94°W
打ち上げ日 Sep 4, 2023
運用期間 2.9 years
タイプ internet

技術仕様

分類 Payload
質量 730.00 kg
乾燥質量 700.00 kg
総質量 730.00 kg
長さ 0.30 m
直径 4.10 m
スパン 29.00 m
形状 Box + pan
製造者 SPXS
バスタイプ Starlink V2M
フェーズステータス In Orbit
所有者/国 SPXS/US

Most Searched